Torna al catalogo

STARLINK-37946

AttivoComunicazioniSSO
NORAD 69672·PAYLOAD·🇺🇸 United States

Lanciato Jun 21, 2026 da Vandenberg Space Force Base

Loading…

Prossimi Passaggi (prossime 24 ore)

TLE

AggiornatoSource: CelesTrak SupGP

Epoca: Sep 15, 2026, 03:59 UTC

1 69672C 26143Z   26258.16645833 -.00046848  00000+0 -14543-2 0  2583
2 69672  97.2831 301.4840 0001112 105.1459  71.5525 15.33462983    12

Traccia STARLINK-37946 in tempo reale con AllMySat

Download on the App Store